R/V Knorr Calliope CSV data file  (Time stamps are GMT)
Date, Time_GMT, Depth12, Depth35, Air_Temp, WXT5_Ta, WXT5_Pa, dec_lat, dec_lon, EDO_knt, GPS_COG, GPS_SOG, Gyro, IMET_BPR, IMET_SWR, WXT5_Ri, WXT5_Rc, HRH, WXT5_Ua, WXT5_Dm, WXT5_Sm, SBE45C, SBE45S, SBE45T, Salinity, SSCND, Fluorometer, SSTMP, SSV, Wnd_Dir, TWD_5, Wnd_Spd, TWS_5, HdChkSum=52
2008/04/01, 00:00:13, 2062.00, 0.00, 5.82, 6.30, 996.5, 62.0938320, -15.0165830, , 19.80, 4.64, 38.00, 996.26, -0.10, 0.0, 16.86, 82.71, 85.6, 7, 23.2, 38.27380, 35.23120, 9.9565, 35.2312, 38.2738, 85.70, 8.6787, 1485.29, 61.90, 40.5, 16.58, 21.2, 52
2008/04/01, 00:01:14, 0.00, 0.00, 5.82, 6.30, 996.0, 62.0948580, -15.0145200, , 56.10, 6.15, 54.40, 995.88, 0.20, 0.0, 16.86, 82.34, 85.2, 1, 20.5, 38.23640, 35.24610, 9.9019, 35.2461, 38.2364, 85.70, 8.6685, 1485.25, 79.30, 49.6, 16.24, 17.2, 52
2008/04/01, 00:02:14, 2057.00, 0.00, 5.85, 6.30, 996.7, 62.0956800, -15.0120620, , 41.10, 8.75, 50.30, 996.03, 0.30, 0.0, 16.86, 82.26, 85.3, 356, 21.1, 38.22480, 35.24830, 9.8875, 35.2483, 38.2248, 86.00, 8.6530, 1485.21, 72.80, 39.6, 17.26, 18.7, 52
2008/04/01, 00:03:14, 2056.00, 0.00, 5.77, 6.30, 996.5, 62.0965680, -15.0095200, , 53.00, 6.46, 49.70, 997.85, 0.00, 0.0, 16.86, 82.46, 85.9, 0, 22.5, 38.24260, 35.23480, 9.9199, 35.2348, 38.2426, 87.60, 8.6378, 1485.15, 64.30, 48.0, 16.55, 20.1, 52
2008/04/01, 00:04:14, 2057.00, 0.00, 5.85, 6.30, 996.2, 62.0975250, -15.0068600, , 55.40, 5.64, 49.20, 996.78, 0.40, 0.0, 16.86, 83.25, 85.7, 3, 21.7, 38.27380, 35.23860, 9.9488, 35.2386, 38.2738, 103.40, 8.6234, 1484.99, 63.80, 50.6, 16.63, 19.9, 52
2008/04/01, 00:05:14, 2053.00, 0.00, 5.79, 6.30, 996.6, 62.0985300, -15.0041530, , 50.50, 7.24, 48.90, 996.41, 0.30, 0.0, 16.86, 83.08, 85.0, 2, 21.7, 38.09040, 35.10080, 9.8971, 35.1008, 38.0904, 116.40, 8.6109, 1485.02, 67.10, 49.5, 15.07, 18.3, 52
2008/04/01, 00:06:14, 0.00, 0.00, 5.99, 6.30, 996.0, 62.0994750, -15.0012550, , 60.70, 4.63, 51.00, 996.22, 0.10, 0.0, 16.86, 82.19, 84.5, 1, 22.1, 38.05050, 35.08950, 9.8666, 35.0895, 38.0505, 93.30, 8.6003, 1484.82, 68.70, 48.2, 16.87, 18.8, 52
2008/04/01, 00:07:14, 0.00, 0.00, 5.77, 6.30, 996.7, 62.1001670, -14.9992400, , 70.00, 8.06, 49.10, 997.86, 0.30, 0.0, 16.86, 81.45, 84.6, 359, 17.3, 38.24160, 35.24400, 9.9095, 35.2440, 38.2416, 88.10, 8.5927, 1484.97, 66.20, 44.9, 16.15, 15.0, 52
2008/04/01, 00:08:14, 0.00, 0.00, 5.99, 6.50, 996.6, 62.1008920, -14.9970320, , 50.90, 7.68, 51.30, 997.13, 0.40, 0.0, 16.86, 81.67, 85.5, 359, 18.0, 38.34170, 35.23480, 10.0241, 35.2348, 38.3417, 85.10, 8.5867, 1484.96, 62.00, 48.7, 16.93, 19.3, 52
2008/04/01, 00:09:14, 2054.00, 0.00, 6.13, 6.60, 996.3, 62.1016970, -14.9946680, , 51.80, 3.80, 52.70, 996.52, 0.60, 0.0, 16.86, 82.29, 85.5, 7, 19.7, 31.84900, 28.60900, 10.1072, 28.6090, 31.8490, 95.20, 8.5812, 1484.91, 67.20, 57.6, 14.56, 17.6, 52
2008/04/01, 00:10:13, 2052.00, 0.00, 5.99, 6.60, 996.7, 62.1025570, -14.9919730, , 54.80, 7.20, 48.80, 997.17, 0.20, 0.0, 16.86, 82.04, 85.0, 1, 17.9, 36.10260, 32.82170, 10.1664, 32.8217, 36.1026, 140.80, 8.5774, 1484.84, 69.40, 47.0, 14.91, 14.9, 52
2008/04/01, 00:11:13, 2051.00, 0.00, 6.21, 6.60, 996.6, 62.1034920, -14.9893780, , 42.30, 6.04, 49.90, 997.42, 0.30, 0.0, 16.86, 82.16, 85.8, 0, 19.3, 38.41500, 35.19680, 10.1400, 35.1968, 38.4150, 100.00, 8.5752, 1482.19, 64.20, 43.7, 12.85, 16.6, 52
2008/04/01, 00:12:13, 2050.00, 0.00, 6.07, 6.60, 996.5, 62.1043870, -14.9867500, , 68.50, 5.83, 49.80, 996.62, 0.20, 0.0, 16.86, 82.41, 84.7, 359, 19.8, 37.86220, 34.81120, 9.9542, 34.8112, 37.8622, 101.90, 8.5733, 1484.32, 69.80, 46.6, 15.09, 15.5, 52
2008/04/01, 00:13:14, 2052.00, 0.00, 5.99, 6.60, 996.5, 62.1052950, -14.9842080, , 58.60, 2.24, 51.10, 997.33, 0.30, 0.0, 16.86, 82.09, 85.1, 358, 19.0, 38.25990, 35.12140, 10.0544, 35.1214, 38.2599, 130.10, 8.5716, 1484.68, 63.60, 42.3, 15.77, 18.0, 52
2008/04/01, 00:14:14, 2053.00, 0.00, 6.16, 6.60, 996.8, 62.1059330, -14.9821050, , 59.20, 3.11, 48.20, 996.48, 0.30, 0.0, 16.86, 81.84, 84.7, 2, 21.5, 35.86490, 32.65750, 10.0822, 32.6575, 35.8649, 96.40, 8.5704, 1484.85, 60.40, 45.9, 17.11, 20.1, 52
2008/04/01, 00:15:14, 2053.00, 0.00, 6.04, 6.50, 997.1, 62.1066430, -14.9800800, , 50.70, 5.75, 50.60, 996.71, 0.10, 0.0, 16.86, 82.39, 84.3, 1, 19.7, 35.41670, 32.16810, 10.1228, 32.1681, 35.4167, 94.80, 8.5691, 1484.59, 68.70, 48.0, 15.40, 17.6, 52
2008/04/01, 00:16:14, 2053.00, 0.00, 6.02, 6.50, 996.3, 62.1075770, -14.9775180, , 62.30, 4.74, 48.50, 996.95, 0.20, 0.0, 16.86, 81.77, 82.9, 359, 20.5, 37.70000, 34.56020, 10.0427, 34.5602, 37.7000, 109.20, 8.5682, 1484.58, 58.60, 43.0, 17.19, 18.6, 52
2008/04/01, 00:17:14, 2052.00, 0.00, 5.93, 6.50, 997.3, 62.1083500, -14.9753070, , 48.80, 3.08, 49.20, 995.58, 0.00, 0.0, 16.86, 80.93, 82.8, 359, 21.3, 38.14030, 34.75160, 10.3111, 34.7516, 38.1403, 108.60, 8.5672, 1484.88, 64.20, 45.8, 17.48, 19.0, 52
2008/04/01, 00:18:14, 2053.00, 0.00, 5.99, 6.40, 996.5, 62.1092730, -14.9729400, , 56.80, 7.16, 51.30, 996.93, -0.10, 0.0, 16.86, 80.81, 83.5, 358, 20.6, 38.20410, 35.02050, 10.0996, 35.0205, 38.2041, 82.00, 8.5649, 1484.84, 65.20, 45.1, 16.78, 19.1, 52
2008/04/01, 00:19:14, 2055.00, 0.00, 5.99, 6.40, 995.8, 62.1101570, -14.9703730, , 36.20, 2.59, 49.50, 996.30, 0.10, 0.0, 16.86, 81.18, 84.0, 357, 20.5, 38.12660, 35.03210, 10.0058, 35.0321, 38.1266, 104.60, 8.5634, 1484.29, 58.50, 40.2, 15.86, 17.9, 52
2008/04/01, 00:20:14, 2056.00, 0.00, 5.93, 6.40, 995.8, 62.1109570, -14.9678600, , 65.20, 8.05, 49.50, 997.33, 0.30, 0.0, 16.86, 81.30, 83.8, 357, 22.2, 38.30550, 35.21460, 10.0067, 35.2146, 38.3055, 81.50, 8.5608, 1484.86, 62.70, 41.8, 16.28, 20.4, 52
2008/04/01, 00:21:14, 2058.00, 0.00, 5.99, 6.50, 996.0, 62.1118050, -14.9655980, , 82.10, 3.37, 50.50, 997.24, 0.40, 0.0, 16.86, 80.78, 83.3, 355, 22.5, 38.38020, 35.22670, 10.0728, 35.2267, 38.3802, 85.10, 8.5587, 1484.69, 65.90, 43.2, 16.12, 20.0, 52
2008/04/01, 00:22:14, 2062.00, 0.00, 6.02, 6.50, 996.0, 62.1127720, -14.9628730, , 58.00, 5.82, 51.60, 996.66, 0.40, 0.0, 16.86, 80.26, 83.1, 356, 19.2, 38.22990, 35.00780, 10.1399, 35.0078, 38.2299, 109.50, 8.5551, 1484.81, 60.20, 37.6, 14.17, 16.0, 52
2008/04/01, 00:23:14, 2062.00, 0.00, 6.02, 6.60, 996.6, 62.1136820, -14.9603170, , 52.10, 6.24, 49.90, 996.63, 0.20, 0.0, 16.86, 80.46, 83.2, 3, 20.6, 38.24840, 35.16150, 10.0011, 35.1615, 38.2484, 84.50, 8.5503, 1484.76, 61.00, 48.2, 16.14, 18.9, 52
2008/04/01, 00:24:14, 2063.00, 0.00, 6.02, 6.60, 996.8, 62.1145550, -14.9576580, , 50.50, 7.43, 50.50, 997.16, 0.30, 0.0, 16.86, 80.66, 83.4, 0, 18.5, 37.99350, 34.86620, 10.0364, 34.8662, 37.9935, 86.40, 8.5427, 1484.38, 66.00, 47.8, 15.45, 15.7, 52
2008/04/01, 00:25:13, 2064.00, 0.00, 6.29, 6.70, 996.3, 62.1155230, -14.9546870, , 62.40, 6.81, 51.70, 998.11, 0.50, 0.0, 16.86, 80.98, 83.9, 359, 19.0, 38.21220, 35.20390, 9.9196, 35.2039, 38.2122, 84.80, 8.5346, 1484.27, 71.60, 47.7, 12.76, 15.3, 52
2008/04/01, 00:26:14, 2068.00, 0.00, 6.21, 6.80, 996.3, 62.1165830, -14.9517030, , 57.90, 6.80, 53.40, 996.87, 0.40, 0.0, 16.86, 81.00, 82.9, 356, 17.2, 38.14430, 35.18830, 9.8642, 35.1883, 38.1443, 80.80, 8.5268, 1484.67, 70.80, 43.4, 11.70, 13.0, 52
2008/04/01, 00:27:14, 2070.00, 0.00, 6.32, 6.80, 995.8, 62.1174280, -14.9488970, , 49.20, 5.32, 49.50, 997.10, 0.30, 0.0, 16.86, 80.68, 82.5, 1, 21.3, 37.97350, 35.01610, 9.8606, 35.0161, 37.9735, 104.00, 8.5178, 1484.69, 71.00, 48.0, 12.89, 17.7, 52
2008/04/01, 00:28:14, 0.00, 0.00, 6.24, 6.70, 996.1, 62.1182680, -14.9464050, , 38.30, 3.48, 48.80, 997.19, -0.10, 0.0, 16.86, 79.59, 80.7, 358, 24.0, 38.05510, 35.10380, 9.8568, 35.1038, 38.0551, 117.90, 8.5096, 1484.28, 64.90, 43.7, 15.12, 21.2, 52
2008/04/01, 00:29:14, 2076.00, 0.00, 6.10, 6.60, 996.6, 62.1190680, -14.9440530, , 52.40, 5.67, 49.80, 997.22, -0.30, 0.0, 16.86, 78.57, 80.3, 353, 21.4, 38.03280, 35.11180, 9.8250, 35.1118, 38.0328, 102.50, 8.5023, 1484.48, 65.70, 38.8, 17.13, 18.6, 52
2008/04/01, 00:30:14, 2078.00, 0.00, 6.16, 6.60, 997.0, 62.1199530, -14.9416200, , 47.70, 6.17, 49.60, 996.03, -0.20, 0.0, 16.86, 78.49, 80.1, 2, 23.5, 38.12550, 35.15800, 9.8755, 35.1580, 38.1255, 94.60, 8.4958, 1484.59, 62.50, 49.0, 16.57, 20.5, 52
2008/04/01, 00:31:14, 2078.00, 0.00, 6.13, 6.60, 995.9, 62.1206220, -14.9394950, , 55.40, 4.10, 50.80, 996.10, -0.10, 0.0, 16.86, 78.29, 80.0, 4, 21.6, 38.28530, 35.23450, 9.9651, 35.2345, 38.2853, 85.70, 8.4900, 1479.04, 59.10, 48.7, 17.24, 18.7, 52
2008/04/01, 00:32:14, 2079.00, 0.00, 6.16, 6.60, 997.1, 62.1214170, -14.9370530, , 57.00, 5.32, 50.30, 998.18, 0.00, 0.0, 16.86, 78.37, 81.2, 1, 17.6, 38.35800, 25.77840, 10.1246, 25.7784, 38.3580, 90.00, 8.4849, 1468.16, 67.20, 46.4, 15.95, 14.4, 52
2008/04/01, 00:33:13, 2083.00, 0.00, 6.21, 6.70, 996.3, 62.1223530, -14.9344830, , 38.60, 5.40, 48.50, 996.50, 0.10, 0.0, 16.86, 79.27, 80.7, 0, 21.3, 37.77090, 34.66360, 10.0104, 34.6636, 37.7709, 87.20, 8.4809, 1483.94, 67.10, 43.5, 13.90, 18.1, 52
2008/04/01, 00:34:14, 2083.00, 0.00, 6.24, 6.70, 997.1, 62.1232950, -14.9316250, , 50.40, 7.03, 49.80, 997.36, 0.00, 0.0, 16.86, 79.24, 81.4, 0, 21.7, 38.10030, 35.04520, 9.9646, 35.0452, 38.1003, 116.00, 8.4774, 1483.53, 61.00, 43.2, 14.35, 18.8, 52
2008/04/01, 00:35:14, 2087.00, 0.00, 6.18, 6.70, 996.6, 62.1241800, -14.9291480, , 43.60, 3.38, 47.40, 998.02, 0.00, 0.0, 16.86, 79.44, 81.7, 2, 21.4, 37.93000, 34.90120, 9.9330, 34.9012, 37.9300, 108.60, 8.4747, 1483.91, 62.80, 47.1, 15.74, 19.0, 52
2008/04/01, 00:36:14, 0.00, 0.00, 6.10, 6.70, 997.1, 62.1251070, -14.9268520, , 56.20, 4.36, 51.80, 996.43, 0.10, 0.0, 16.86, 79.36, 81.5, 358, 22.5, 38.16870, 35.10180, 9.9785, 35.1018, 38.1687, 80.20, 8.4720, 1484.39, 63.50, 45.0, 15.81, 19.7, 52
2008/04/01, 00:37:14, 0.00, 0.00, 6.16, 6.60, 996.3, 62.1258170, -14.9246180, , 50.70, 2.85, 51.30, 997.76, -0.10, 0.0, 16.86, 79.17, 81.3, 355, 21.2, 38.08300, 35.04510, 9.9465, 35.0451, 38.0830, 82.00, 8.4695, 1483.43, 67.70, 43.8, 16.01, 18.9, 52
2008/04/01, 00:38:14, 2110.00, 0.00, 6.16, 6.60, 996.8, 62.1266420, -14.9222830, , 56.90, 8.76, 49.80, 997.05, -0.30, 0.0, 16.86, 79.22, 81.5, 357, 21.8, 38.29460, 35.23000, 9.9795, 35.2300, 38.2946, 78.10, 8.4667, 1484.50, 58.00, 40.3, 15.45, 18.8, 52
2008/04/01, 00:39:13, 2125.00, 0.00, 6.07, 6.60, 997.2, 62.1275670, -14.9196770, , 52.00, 3.32, 50.10, 996.47, -0.20, 0.0, 16.86, 79.44, 81.7, 356, 23.2, 36.87020, 33.67750, 10.0819, 33.6775, 36.8702, 97.60, 8.4639, 1484.47, 58.80, 44.9, 16.84, 21.1, 52
2008/04/01, 00:40:14, 2117.00, 0.00, 6.04, 6.50, 996.4, 62.1284300, -14.9172330, , 59.70, 7.87, 51.50, 997.88, -0.20, 0.0, 16.86, 79.71, 82.1, 355, 17.9, 38.31210, 35.17700, 10.0522, 35.1770, 38.3121, 113.60, 8.4612, 1484.29, 63.20, 43.0, 16.69, 14.9, 52
2008/04/01, 00:41:14, 2108.00, 0.00, 6.10, 6.50, 996.5, 62.1290620, -14.9147250, , 35.20, 4.37, 50.70, 997.69, 0.00, 0.0, 16.86, 80.23, 83.0, 359, 21.1, 38.11560, 35.14350, 9.8799, 35.1435, 38.1156, 86.90, 8.4592, 1483.71, 59.00, 45.2, 15.34, 18.2, 52
2008/04/01, 00:42:14, 0.00, 0.00, 6.02, 6.50, 995.9, 62.1296680, -14.9125780, , 30.00, 2.08, 50.80, 996.40, 0.40, 0.0, 16.86, 79.29, 81.3, 355, 21.2, 38.19540, 35.21940, 9.8860, 35.2194, 38.1954, 83.20, 8.4565, 1484.40, 58.70, 40.6, 16.15, 19.9, 52
2008/04/01, 00:43:14, 0.00, 0.00, 5.99, 6.40, 996.4, 62.1302330, -14.9106230, , 73.60, 5.15, 55.20, 997.12, 0.20, 0.0, 16.86, 78.54, 80.1, 1, 22.0, 38.31500, 35.22410, 10.0070, 35.2241, 38.3150, 85.10, 8.4541, 1484.45, 70.20, 52.6, 15.89, 18.7, 52
2008/04/01, 00:44:13, 2095.00, 0.00, 6.02, 6.40, 996.3, 62.1308750, -14.9085030, , 60.90, 6.13, 49.30, 996.95, 0.40, 0.0, 16.86, 78.24, 80.1, 359, 20.1, 33.35720, 30.08750, 10.1372, 30.0875, 33.3572, 90.30, 8.4524, 1484.44, 60.00, 42.7, 15.94, 17.1, 52
2008/04/01, 00:45:14, 0.00, 0.00, 6.02, 6.50, 995.9, 62.1315570, -14.9064070, , 59.20, 5.07, 48.60, 997.05, 0.20, 0.0, 16.86, 78.07, 79.7, 358, 19.5, 38.39190, 35.12370, 10.1909, 35.1237, 38.3919, 88.10, 8.4520, 1484.40, 68.00, 44.5, 15.24, 17.0, 52
2008/04/01, 00:46:14, 2074.00, 0.00, 6.07, 6.50, 996.0, 62.1325470, -14.9037770, , 56.00, 8.92, 49.20, 997.03, 0.40, 0.0, 16.86, 78.17, 80.0, 5, 23.0, , 19.91220, 10.4948, 19.9122, 38.3919, 85.40, 8.4522, 1463.49, 63.60, 52.5, 16.54, 20.0, 52
2008/04/01, 00:47:14, 2065.00, 0.00, 6.10, 6.50, 996.0, 62.1334750, -14.9013680, , 53.30, 3.56, 53.40, 996.54, 0.40, 0.0, 16.86, 77.79, 79.2, 2, 19.2, 38.33350, 35.00900, 10.2479, 35.0090, 38.3335, 92.10, 8.4522, 1484.33, 73.40, 49.0, 15.03, 15.5, 52
2008/04/01, 00:48:14, 2058.00, 0.00, 6.13, 6.50, 996.0, 62.1343020, -14.8988020, , 41.50, 6.45, 48.50, 997.93, 0.30, 0.0, 16.86, 77.84, 80.2, 0, 21.9, 38.49170, 35.17030, 10.2477, 35.1703, 38.4917, 96.10, 8.4521, 1484.39, 68.90, 43.6, 17.40, 19.8, 52
2008/04/01, 00:49:14, 2054.00, 0.00, 6.07, 6.60, 996.2, 62.1351670, -14.8962950, , 101.20, 1.71, 51.10, 997.14, 0.00, 0.0, 16.86, 78.27, 80.4, 357, 21.7, 38.12760, 34.98420, 10.0563, 34.9842, 38.1276, 101.00, 8.4515, 1484.33, 70.60, 45.3, 15.06, 18.5, 52
2008/04/01, 00:50:14, 2051.00, 0.00, 6.02, 6.50, 996.1, 62.1360380, -14.8938100, , 68.40, 3.71, 49.00, 997.91, 0.10, 0.0, 16.86, 78.67, 80.6, 354, 19.3, 37.59440, 34.55470, 9.9357, 34.5547, 37.5944, 85.40, 8.4517, 1484.26, 66.80, 39.8, 16.63, 17.0, 52
2008/04/01, 00:51:14, 2052.00, 0.00, 6.13, 6.50, 996.8, 62.1371270, -14.8909420, , 51.10, 7.32, 51.20, 997.15, 0.00, 0.0, 16.86, 79.49, 82.0, 1, 21.5, 38.24690, 35.22270, 9.9369, 35.2227, 38.2469, 106.40, 8.4527, 1484.21, 68.00, 48.5, 15.49, 18.1, 52
2008/04/01, 00:52:14, 2050.00, 0.00, 5.99, 6.50, 996.0, 62.1380000, -14.8884580, , 52.20, 2.49, 52.80, 996.37, -0.40, 0.0, 16.86, 79.79, 82.2, 357, 24.6, 38.42320, 35.17060, 10.1755, 35.1706, 38.4232, 82.40, 8.4524, 1484.43, 64.60, 45.2, 16.40, 22.7, 52
2008/04/01, 00:53:14, 2048.00, 0.00, 5.88, 6.40, 996.4, 62.1387270, -14.8860270, , 66.00, 5.25, 48.50, 996.85, -0.40, 0.0, 16.86, 80.14, 82.7, 355, 21.9, 38.45140, 35.20420, 10.1706, 35.2042, 38.4514, 99.20, 8.4526, 1482.48, 62.90, 37.6, 17.30, 19.6, 52
2008/04/01, 00:54:13, 2047.00, 0.00, 5.88, 6.40, 996.4, 62.1394330, -14.8834650, , 58.60, 4.81, 51.20, 996.65, -0.50, 0.0, 16.86, 80.31, 82.7, 355, 22.6, 38.05980, 34.99420, 9.9745, 34.9942, 38.0598, 88.80, 8.4527, 1484.33, 56.70, 37.4, 16.04, 19.5, 52
2008/04/01, 00:55:14, 2043.00, 0.00, 5.85, 6.20, 995.8, 62.1403020, -14.8809120, , 44.50, 3.35, 50.20, 997.53, -0.20, 0.0, 16.86, 80.68, 83.8, 356, 18.1, 38.15870, 35.20630, 9.8609, 35.2063, 38.1587, 112.60, 8.4520, 1484.13, 58.60, 41.2, 17.11, 15.2, 52
2008/04/01, 00:56:14, 2041.00, 0.00, 5.77, 6.30, 995.8, 62.1412300, -14.8783850, , 38.30, 7.22, 47.20, 997.36, 0.00, 0.1, 16.86, 81.45, 84.9, 357, 21.2, 37.52860, 34.60910, 9.8087, 34.6091, 37.5286, 76.30, 8.4510, 1484.32, 53.60, 37.9, 15.07, 17.8, 52
2008/04/01, 00:57:14, 2037.00, 0.00, 5.68, 6.20, 996.2, 62.1421750, -14.8758900, , 53.10, 6.09, 50.10, 996.73, 0.00, 0.0, 16.86, 81.82, 84.5, 357, 21.1, 38.01370, 35.15480, 9.7610, 35.1548, 38.0137, 87.90, 8.4495, 1484.40, 64.30, 45.2, 17.18, 18.3, 52
2008/04/01, 00:58:14, 0.00, 0.00, 5.68, 6.10, 996.0, 62.1428100, -14.8737070, , 60.90, 5.24, 51.10, 997.40, -0.20, 0.0, 16.86, 82.14, 84.9, 353, 24.2, 31.12800, 28.11450, 9.8224, 28.1145, 31.1280, 81.50, 8.4482, 1483.26, 58.20, 40.0, 17.99, 22.5, 52
2008/04/01, 00:59:14, 2034.00, 0.00, 5.51, 6.00, 996.4, 62.1433420, -14.8717550, , 54.00, 3.26, 46.90, 996.56, 0.20, 0.0, 16.86, 82.39, 85.6, 354, 22.0, 38.14410, 35.22560, 9.8258, 35.2256, 38.1441, 82.40, 8.4469, 1484.33, 52.40, 35.8, 16.39, 19.8, 52
2008/04/01, 01:00:14, 0.00, 0.00, 5.51, 6.00, 996.7, 62.1440850, -14.8697300, , 58.00, 5.30, 53.00, 997.24, 0.30, 0.0, 16.86, 82.95, 86.2, 358, 19.4, 37.84160, 22.34640, 9.9471, 22.3464, 37.8416, 93.00, 8.4453, 1483.99, 58.60, 43.8, 14.89, 16.4, 52
2008/04/01, 01:01:14, 2031.00, 0.00, 5.49, 6.00, 996.7, 62.1446370, -14.8676450, , 47.40, 5.36, 49.20, 997.04, 0.30, 0.0, 16.86, 83.22, 88.1, 2, 22.0, 38.33720, 35.23420, 10.0200, 35.2342, 38.3372, 81.70, 8.4452, 1484.42, 55.10, 47.5, 14.74, 18.7, 52
2008/04/01, 01:02:14, 2026.00, 0.00, 5.43, 5.80, 996.3, 62.1453700, -14.8655230, , 41.90, 5.69, 51.30, 997.37, 0.10, 0.2, 16.87, 83.52, 88.3, 359, 22.1, 38.27680, 35.01530, 10.1816, 35.0153, 38.2768, 91.20, 8.4455, 1484.42, 61.80, 43.2, 16.95, 20.1, 52
2008/04/01, 01:03:14, 2028.00, 0.00, 5.29, 5.60, 996.9, 62.1462250, -14.8628630, , 58.10, 5.77, 50.50, 996.82, 0.10, 0.4, 16.88, 82.93, 88.7, 352, 19.6, 38.13230, 35.03630, 10.0075, 35.0363, 38.1323, 79.30, 8.4454, 1484.38, 57.00, 36.1, 16.99, 17.9, 52
2008/04/01, 01:04:13, 2025.00, 0.00, 5.51, 5.70, 995.7, 62.1468570, -14.8606320, , 33.80, 3.32, 48.40, 996.79, 0.50, 0.1, 16.88, 82.98, 89.2, 353, 22.9, 31.81870, 28.54990, 10.1440, 28.5499, 31.8187, 81.50, 8.4451, 1484.39, 59.30, 39.3, 16.56, 20.7, 52
2008/04/01, 01:05:13, 0.00, 0.00, 5.38, 5.70, 996.8, 62.1476330, -14.8585020, , 59.60, 4.47, 47.40, 996.88, 0.40, 0.0, 16.88, 83.59, 88.7, 357, 23.0, 38.49260, 35.23410, 10.1831, 35.2341, 38.4926, 85.70, 8.4439, 1484.40, 52.60, 40.9, 17.87, 22.3, 52
2008/04/01, 01:06:14, 2023.00, 0.00, 5.46, 5.70, 996.2, 62.1484770, -14.8563430, , 67.00, 2.85, 50.40, 997.13, 0.40, 0.0, 16.88, 83.37, 88.1, 355, 21.6, 38.58280, 20.56300, 10.2761, 20.5630, 38.5828, 83.90, 8.4434, 1484.41, 62.10, 41.6, 16.73, 19.8, 52
2008/04/01, 01:07:14, 2017.00, 0.00, 5.51, 5.70, 995.9, 62.1493180, -14.8538620, , 53.70, 6.81, 50.70, 996.98, 0.00, 0.0, 16.88, 82.85, 87.7, 353, 20.4, 38.21850, 35.02730, 10.1078, 35.0273, 38.2185, 88.40, 8.4425, 1484.06, 62.00, 38.2, 15.59, 16.9, 52
2008/04/01, 01:08:14, 2011.00, 0.00, 5.43, 5.70, 997.1, 62.1501130, -14.8510570, , 74.90, 7.98, 62.00, 997.35, 0.20, 0.0, 16.88, 82.73, 87.1, 351, 23.6, 38.13180, 35.07270, 9.9696, 35.0727, 38.1318, 91.50, 8.4416, 1484.14, 76.00, 49.1, 17.03, 20.9, 52
2008/04/01, 01:09:14, 2007.00, 0.00, 5.51, 5.70, 996.5, 62.1505970, -14.8477250, , 87.00, 7.96, 66.70, 997.41, 0.30, 0.0, 16.88, 82.39, 87.1, 340, 27.0, 37.96400, 34.76720, 10.1078, 34.7672, 37.9640, 81.70, 8.4415, 1484.01, 75.70, 42.6, 16.48, 24.1, 52
2008/04/01, 01:10:14, 2005.00, 0.00, 5.65, 5.80, 996.1, 62.1510320, -14.8444930, , 53.60, 5.60, 68.20, 997.02, 0.20, 0.0, 16.88, 82.31, 87.1, 341, 25.4, 38.44250, 35.13010, 10.2375, 35.1301, 38.4425, 110.80, 8.4414, 1484.01, 54.20, 43.4, 17.86, 24.5, 52
2008/04/01, 01:11:14, 0.00, 0.00, 5.60, 5.80, 996.5, 62.1511680, -14.8415480, , 84.50, 7.54, 72.50, 997.35, 0.20, 0.0, 16.88, 81.89, 86.2, 341, 22.2, 38.44890, 35.18560, 10.1870, 35.1856, 38.4489, 93.30, 8.4413, 1484.20, 52.40, 45.2, 16.26, 20.2, 52
2008/04/01, 01:12:14, 2000.00, 0.00, 5.68, 5.80, 996.6, 62.1512950, -14.8389130, , 74.80, 4.45, 69.60, 996.07, 0.40, 0.0, 16.88, 81.82, 86.6, 333, 21.7, 38.23130, 35.09340, 10.0531, 35.0934, 38.2313, 103.70, 8.4399, 1467.79, 48.60, 35.1, 17.79, 20.7, 52
2008/04/01, 01:13:14, 2047.00, 0.00, 5.57, 5.90, 996.3, 62.1515170, -14.8359150, , 47.70, 4.76, 69.10, 997.12, 0.20, 0.0, 16.88, 81.92, 86.5, 340, 24.1, 38.25410, 34.98090, 10.1932, 34.9809, 38.2541, 78.70, 8.4390, 1484.25, 48.30, 44.3, 16.56, 23.0, 52
2008/04/01, 01:14:14, 1997.00, 0.00, 5.54, 5.90, 996.8, 62.1517550, -14.8333650, , 340.50, 3.89, 75.30, 996.95, 0.10, 0.0, 16.89, 82.29, 86.4, 339, 23.8, 34.25120, 31.19360, 9.8921, 31.1936, 34.2512, 88.80, 8.4375, 1483.86, 44.80, 40.5, 16.51, 21.7, 52
2008/04/01, 01:15:14, 1997.00, 0.00, 5.49, 5.90, 996.8, 62.1516950, -14.8311870, , 86.90, 5.08, 69.70, 998.07, 0.30, 0.7, 16.89, 83.66, 86.6, 339, 23.0, 38.23110, 35.22900, 9.9138, 35.2290, 38.2311, 76.80, 8.4362, 1484.39, 52.80, 42.2, 16.75, 21.8, 52
2008/04/01, 01:16:14, 1997.00, 0.00, 5.43, 5.90, 997.1, 62.1519780, -14.8283750, , 99.20, 6.61, 70.60, 997.86, 0.20, 0.1, 16.89, 84.40, 86.5, 338, 22.3, 38.02370, 35.01930, 9.9104, 35.0193, 38.0237, 125.20, 8.4351, 1467.56, 47.20, 41.4, 15.14, 19.5, 52
2008/04/01, 01:17:14, 1997.00, 0.00, 5.46, 5.90, 996.1, 62.1521720, -14.8257830, , 114.70, 4.41, 78.50, 997.06, 0.20, 0.0, 16.89, 84.79, 86.8, 337, 24.3, 38.02960, 35.06690, 9.8677, 35.0669, 38.0296, 94.00, 8.4344, 1484.13, 52.60, 44.7, 14.94, 21.6, 52
2008/04/01, 01:18:14, 0.00, 0.00, 5.46, 5.90, 996.9, 62.1521650, -14.8234220, , 102.50, 5.78, 68.20, 997.06, 0.30, 0.0, 16.89, 84.99, 86.8, 344, 19.3, 38.05360, 35.15760, 9.8001, 35.1576, 38.0536, 99.20, 8.4344, 1484.37, 53.60, 53.1, 18.03, 18.8, 52
2008/04/01, 01:19:14, 1998.00, 0.00, 5.38, 5.90, 996.1, 62.1523220, -14.8210970, , 58.90, 3.13, 70.00, 997.82, 0.30, 0.0, 16.89, 85.01, 86.6, 337, 22.6, 38.02090, 35.10990, 9.8144, 35.1099, 38.0209, 92.10, 8.4339, 1484.37, 45.20, 41.8, 16.73, 21.7, 52
2008/04/01, 01:20:14, 1997.00, 0.00, 5.35, 5.90, 996.7, 62.1525130, -14.8185350, , 84.90, 7.59, 70.20, 998.13, 0.20, 0.0, 16.89, 84.72, 86.3, 344, 21.2, 38.14820, 35.21340, 9.8427, 35.2134, 38.1482, 76.30, 8.4346, 1484.36, 52.90, 49.2, 16.91, 19.2, 52
2008/04/01, 01:21:14, 0.00, 0.00, 5.35, 5.90, 996.1, 62.1527250, -14.8159580, , 85.20, 2.31, 71.50, 997.70, 0.30, 0.0, 16.89, 84.52, 86.4, 336, 21.6, 38.04770, 35.15490, 9.7967, 35.1549, 38.0477, 77.50, 8.4349, 1484.35, 50.60, 41.3, 17.20, 19.8, 52
2008/04/01, 01:22:14, 1998.00, 0.00, 5.38, 5.90, 996.9, 62.1528800, -14.8136070, , 85.50, 5.24, 70.30, 997.73, 0.30, 0.0, 16.89, 84.28, 86.1, 341, 21.1, 37.93800, 35.01290, 9.8264, 35.0129, 37.9380, 92.10, 8.4355, 1484.29, 48.60, 43.0, 16.50, 18.8, 52
2008/04/01, 01:23:14, 1998.00, 0.00, 5.38, 5.90, 996.9, 62.1527880, -14.8116070, , 70.00, 2.36, 71.00, 997.17, 0.20, 0.0, 16.89, 84.35, 86.2, 337, 21.0, 38.28370, 35.23350, 9.9645, 35.2335, 38.2837, 75.00, 8.4355, 1481.66, 48.60, 37.3, 16.74, 19.2, 52
2008/04/01, 01:24:14, 0.00, 0.00, 5.51, 5.90, 997.3, 62.1529680, -14.8093030, , 43.80, 3.73, 71.00, 998.26, 0.20, 0.0, 16.89, 84.45, 87.1, 336, 19.1, 37.21590, 34.12040, 9.9853, 34.1204, 37.2159, 111.80, 8.4344, 1465.34, 39.90, 35.9, 16.62, 17.4, 52
2008/04/01, 01:25:14, 0.00, 0.00, 5.43, 6.00, 996.5, 62.1530150, -14.8073350, , 111.70, 3.97, 73.40, 997.91, 0.50, 0.0, 16.89, 84.77, 87.2, 341, 18.5, 37.99270, 35.03780, 9.8586, 35.0378, 37.9927, 93.00, 8.4328, 1484.32, 52.60, 49.6, 15.30, 17.5, 52
2008/04/01, 01:26:13, 0.00, 0.00, 5.40, 6.00, 996.6, 62.1527270, -14.8066870, , 199.00, 3.21, 95.30, 997.34, 0.10, 0.0, 16.89, 84.74, 86.8, 329, 19.3, 38.10120, 35.21510, 9.7914, 35.2151, 38.1012, 87.90, 8.4310, 1484.23, 82.50, 65.5, 18.17, 19.8, 52
2008/04/01, 01:27:13, 1995.00, 0.00, 5.49, 6.00, 996.7, 62.1523720, -14.8068650, , 25.30, 2.38, 130.70, 997.91, 0.30, 0.0, 16.89, 84.33, 86.4, 310, 15.3, 38.08500, 35.21280, 9.7768, 35.2128, 38.0850, 83.20, 8.4294, 1484.27, 95.20, 70.9, 18.69, 17.5, 52
2008/04/01, 01:28:14, 1996.00, 0.00, 5.60, 6.00, 997.2, 62.1517470, -14.8068530, , 186.60, 3.40, 108.20, 997.82, 0.30, 0.8, 16.92, 84.38, 86.9, 292, 13.5, 38.06360, 35.22820, 9.7384, 35.2282, 38.0636, 76.30, 8.4290, 1484.35, 56.60, 39.0, 18.02, 13.9, 52
2008/04/01, 01:29:14, 1994.00, 0.00, 5.43, 6.00, 996.4, 62.1511900, -14.8060420, , 123.30, 4.08, 73.00, 997.45, 0.30, 0.9, 16.92, 83.93, 86.2, 327, 19.7, 37.99880, 35.19160, 9.7075, 35.1916, 37.9988, 75.30, 8.4296, 1484.36, 353.80, 37.9, 12.94, 19.1, 52
2008/04/01, 01:30:14, 1996.00, 0.00, 5.40, 5.90, 997.0, 62.1510780, -14.8046400, , 52.50, 4.29, 72.40, 998.21, 0.20, 0.0, 16.92, 83.57, 85.9, 336, 21.9, 38.16830, 35.22890, 9.8480, 35.2289, 38.1683, 73.80, 8.4302, 1484.35, 18.00, 42.3, 18.73, 20.8, 52
2008/04/01, 01:31:14, 1996.00, 0.00, 5.43, 5.90, 996.5, 62.1510470, -14.8023220, , 31.30, 1.44, 68.90, 997.42, 0.20, 0.0, 16.92, 83.22, 85.6, 335, 21.6, 38.03570, 35.23090, 9.7063, 35.2309, 38.0357, 77.80, 8.4311, 1484.36, 44.40, 34.8, 16.96, 20.0, 52
2008/04/01, 01:32:14, 1996.00, 0.00, 5.54, 6.00, 996.9, 62.1511530, -14.7998670, , 47.40, 3.34, 74.60, 997.40, 0.40, 0.0, 16.92, 83.17, 85.8, 338, 20.8, 37.98030, 35.22410, 9.6550, 35.2241, 37.9803, 75.30, 8.4312, 1484.37, 45.80, 43.1, 17.88, 18.8, 52